Terug naar catalogus

NOAA 16 DEB

ActiefPO
NORAD 41157·DEBRIS·🇺🇸 United States

Gelanceerd Sep 21, 2000 vanaf Vandenberg Space Force Base

Loading…

Volgende Passages (komende 24 uur)

TLE

VersSource: Space-Track

Epoch: Sep 14, 2026, 14:33 UTC

1 41157U 00055CQ  26257.60650383  .00011232  00000-0  26308-2 0  9991
2 41157  98.9130  37.3208 0020270 202.9919 157.0371 14.54615932557579

Volg NOAA 16 DEB in realtime met AllMySat

Download on the App Store